Showing default

LEMUR-2 POLO-11, 68493

Orbit data source: Space-Track

LEMUR-2 POLO-11, 68493 is a payload satellite owned by Spire (LU) in SSO that was launched on Mon, 30 Mar 2026 UTC via an FALCON 9 launch vehicle from the Air Force Western Test Range (AFWTR). Payload-class satellites include a variety of spacecraft equipped with specific instruments for various scientific and technological missions. These include communications satellites like Starlink; space stations such as the ISS; scientific satellites like the Hubble; Earth observation satellites from companies like Planet Labs, Umbra, and HawkEye 360; GPS; miniature CubeSats for education and research; and military/defense satellites.

Loading next visibility...
Identifier
68493, 2026-067CF
Orbit
SSO
Country
Flag of LULU / LUXE
Related business
Manufacturer
Spire/Glasgow
Mission
Operational spacecraft
Bus & Motor
CUBESAT 3U, Unknown motor
Mass
7.6 kg wet, 7.6 kg dry
Launch date (UTC)
2026-03-30 (3 months ago)
Launch vehicle
FALCON 9
Launch site
Air Force Western Test Range (AFWTR)
Object type
Payload
Rocket body
Debris
Shape & HBR
Unknown shape, 0.2 m
Radar Cross Section
Medium (>0.1 m² and <1 m²)

Expand to show TLE details & history
Last TLE update: 2 days ago

TLE from 2 days ago
0 LEMUR-2 POLO-11
1 68493U 26067CF  26171.42479104  .00005389  00000-0  54070-3 0  9993
2 68493  97.7652 129.6300 0004680  39.9353 320.2209 14.91714361 12209
Epoch: 2026-06-20T10:11Z
TLE epoch observation values (Epoch: 2026-06-20T10:11:41.945Z)
Latitude
-0.00007°
Longitude
68.06563°
Altitude
593.124 km
Speed
7.565 km/s
True Right ascension
08h 38m 31s
True Declination
0° 00' 00"
Sunlit
Object was in daylight at epoch
Visualization orbit readout
Latitude
Unknown
Longitude
Unknown
Altitude
Unknown
Speed
Unknown
Apparent Right ascension
Unknown
Apparent Declination
Unknown
Sunlit
N/A
Visualization observer readout
Local Sidereal Time
16:36:11
Azimuth
Unknown
Elevation
Unknown
Doppler factor
Unknown
Orbital elements
Apogee altitude
592.87 km
Perigee altitude
586.348 km
Semi-major axis
6,967.746 km
Eccentricity
0.00047
Inclination
97.7652°
RAAN
129.63°
Arg. of periapsis
39.9353°
True anomaly
320.18657°
Mean anomaly
320.2209°
Eccentric anomaly
320.20374°
Mean motion
3.73168 °/min
Orbital period
96.47 mins
BSTAR
0.0005407
Loading maneuver chart data...
Computing Atmospheric mass density...
Loading historical data...
Loading historical data...
Loading historical data...
Loading historical data...
Loading historical data...
Loading historical data...
Loading historical data...

Documentation

Showing up to 5 results
|